User: anonymous   Login
Location: Niedergestelen
(46.3129°N, 7.7822°E)
Time: 03:13:15
(UTC+00:00)
Language:

FENGYUN 1C DEB - Orbit

View from above orbital plane
View from above orbital plane
View from above satellite
View from above satellite

Ground track
Ground track

The orbit data is extracted from the following two-line orbital elements,

1 30607U 99025AMN 21165.78603290  .00001720  00000-0  63004-3 0  9997
2 30607  98.9071 275.2430 0043801 238.0286 121.6636 14.33694262742907
Epoch (UTC): 14 June 2021 18:51:53
Eccentricity: 0.0043801
inclination: 98.9071°
perigee height: 748 km
apogee height: 811 km
right ascension of ascending node: 275.2430°
argument of perigee: 238.0286°
revolutions per day: 14.33694262
mean anomaly at epoch: 121.6636°
orbit number at epoch: 74290

The dashed part of the orbit path shows where the satellite is in the earth's shadow,  

DLR